TimeCDT,TemperatureF,Dew PointF,Humidity,Sea Level PressureIn,VisibilityMPH,Wind Direction,Wind SpeedMPH,Gust SpeedMPH,PrecipitationIn,Events,Conditions,WindDirDegrees,DateUTC
12:15 AM,62.6,46.4,55,30.03,2.5,ESE,8.1,-,N/A,,Clear,120,2013-04-02 05:15:00
12:35 AM,62.6,46.4,55,30.04,2.0,ENE,5.8,-,N/A,,Clear,70,2013-04-02 05:35:00
12:55 AM,60.8,46.4,59,30.05,7.0,ENE,6.9,-,N/A,,Scattered Clouds,60,2013-04-02 05:55:00
1:15 AM,60.8,46.4,59,30.06,10.0,ENE,10.4,-,N/A,,Scattered Clouds,70,2013-04-02 06:15:00
1:35 AM,59.0,46.4,63,30.06,10.0,East,10.4,-,N/A,,Clear,80,2013-04-02 06:35:00
1:55 AM,59.0,48.2,67,30.06,10.0,ENE,10.4,-,N/A,,Clear,70,2013-04-02 06:55:00
2:15 AM,59.0,48.2,67,30.06,10.0,East,9.2,-,N/A,,Clear,80,2013-04-02 07:15:00
2:35 AM,57.2,50.0,77,30.06,10.0,East,9.2,-,N/A,,Clear,80,2013-04-02 07:35:00
2:55 AM,57.2,50.0,77,30.04,10.0,East,10.4,-,N/A,,Clear,100,2013-04-02 07:55:00
3:15 AM,57.2,50.0,77,30.04,10.0,East,11.5,-,N/A,,Clear,100,2013-04-02 08:15:00
3:35 AM,57.2,50.0,77,30.02,10.0,ESE,12.7,-,N/A,,Clear,110,2013-04-02 08:35:00
3:55 AM,57.2,50.0,77,30.04,10.0,East,12.7,17.3,N/A,,Clear,90,2013-04-02 08:55:00
4:15 AM,57.2,50.0,77,30.04,10.0,East,13.8,-,N/A,,Clear,90,2013-04-02 09:15:00
4:35 AM,57.2,50.0,77,30.06,10.0,ENE,11.5,-,N/A,,Clear,60,2013-04-02 09:35:00
4:55 AM,55.4,50.0,82,30.04,10.0,East,12.7,23.0,N/A,,Clear,90,2013-04-02 09:55:00
5:15 AM,55.4,50.0,82,30.05,10.0,East,11.5,-,N/A,,Clear,80,2013-04-02 10:15:00
5:35 AM,55.4,50.0,82,30.06,10.0,East,12.7,17.3,N/A,,Clear,90,2013-04-02 10:35:00
5:55 AM,55.4,48.2,77,30.07,10.0,East,10.4,18.4,N/A,,Clear,90,2013-04-02 10:55:00
6:15 AM,55.4,46.4,72,30.08,10.0,East,11.5,18.4,N/A,,Clear,80,2013-04-02 11:15:00
6:35 AM,55.4,44.6,67,30.07,4.0,East,15.0,19.6,N/A,,Scattered Clouds,90,2013-04-02 11:35:00
6:55 AM,53.6,44.6,72,30.07,7.0,East,13.8,-,N/A,,Scattered Clouds,90,2013-04-02 11:55:00
7:15 AM,53.6,44.6,72,30.09,7.0,East,12.7,18.4,N/A,,Clear,90,2013-04-02 12:15:00
7:35 AM,53.6,44.6,72,30.10,7.0,East,9.2,17.3,N/A,,Scattered Clouds,90,2013-04-02 12:35:00
7:55 AM,53.6,42.8,67,30.10,7.0,East,11.5,19.6,N/A,,Scattered Clouds,90,2013-04-02 12:55:00
8:15 AM,53.6,42.8,67,30.10,4.0,East,13.8,21.9,N/A,,Clear,90,2013-04-02 13:15:00
8:35 AM,53.6,42.8,67,30.10,5.0,East,17.3,23.0,N/A,,Scattered Clouds,90,2013-04-02 13:35:00
8:55 AM,53.6,42.8,67,30.11,7.0,East,15.0,21.9,N/A,,Overcast,90,2013-04-02 13:55:00
9:35 AM,53.6,42.8,67,30.11,5.0,East,16.1,23.0,N/A,,Mostly Cloudy,80,2013-04-02 14:35:00
9:55 AM,53.6,42.8,67,30.12,10.0,East,13.8,20.7,N/A,,Mostly Cloudy,90,2013-04-02 14:55:00
10:15 AM,53.6,42.8,67,30.12,10.0,East,13.8,21.9,N/A,,Overcast,90,2013-04-02 15:15:00
10:55 AM,53.6,42.8,67,30.11,10.0,East,17.3,27.6,N/A,,Scattered Clouds,90,2013-04-02 15:55:00
11:15 AM,53.6,42.8,67,30.11,10.0,East,20.7,25.3,N/A,,Scattered Clouds,90,2013-04-02 16:15:00
11:35 AM,55.4,42.8,63,30.09,10.0,East,15.0,25.3,N/A,,Clear,80,2013-04-02 16:35:00
12:15 PM,55.4,41.0,58,30.10,10.0,East,13.8,18.4,N/A,,Clear,80,2013-04-02 17:15:00
12:35 PM,53.6,41.0,62,30.10,10.0,East,15.0,19.6,N/A,,Scattered Clouds,100,2013-04-02 17:35:00
12:55 PM,53.6,39.2,58,30.10,10.0,East,15.0,21.9,N/A,,Overcast,90,2013-04-02 17:55:00
1:15 PM,53.6,39.2,58,30.10,10.0,East,15.0,19.6,N/A,,Mostly Cloudy,80,2013-04-02 18:15:00
1:35 PM,55.4,39.2,54,30.08,10.0,East,18.4,24.2,N/A,,Scattered Clouds,90,2013-04-02 18:35:00
2:15 PM,55.4,39.2,54,30.10,10.0,East,12.7,-,N/A,,Scattered Clouds,90,2013-04-02 19:15:00
2:35 PM,57.2,37.4,48,30.08,10.0,East,12.7,20.7,N/A,,Clear,80,2013-04-02 19:35:00
3:15 PM,57.2,37.4,48,30.06,10.0,East,16.1,21.9,N/A,,Clear,80,2013-04-02 20:15:00
3:35 PM,57.2,37.4,48,30.04,10.0,East,17.3,21.9,N/A,,Clear,90,2013-04-02 20:35:00
3:55 PM,59.0,37.4,45,30.04,10.0,East,15.0,20.7,N/A,,Scattered Clouds,80,2013-04-02 20:55:00
4:15 PM,57.2,37.4,48,30.03,10.0,ENE,15.0,21.9,N/A,,Clear,70,2013-04-02 21:15:00
4:35 PM,55.4,37.4,51,30.04,10.0,ENE,10.4,19.6,N/A,,Mostly Cloudy,70,2013-04-02 21:35:00
4:55 PM,55.4,37.4,51,30.04,10.0,East,15.0,23.0,N/A,,Mostly Cloudy,80,2013-04-02 21:55:00
5:15 PM,55.4,37.4,51,30.03,10.0,ENE,15.0,20.7,N/A,,Mostly Cloudy,70,2013-04-02 22:15:00
5:35 PM,53.6,35.6,51,30.04,10.0,ENE,16.1,24.2,N/A,,Scattered Clouds,70,2013-04-02 22:35:00
5:55 PM,53.6,35.6,51,30.04,10.0,ENE,21.9,27.6,N/A,,Scattered Clouds,60,2013-04-02 22:55:00
6:15 PM,51.8,35.6,54,30.05,10.0,ENE,16.1,26.5,N/A,,Mostly Cloudy,70,2013-04-02 23:15:00
6:35 PM,50.0,35.6,58,30.05,10.0,ENE,19.6,26.5,N/A,,Mostly Cloudy,60,2013-04-02 23:35:00
7:15 PM,46.4,35.6,66,30.05,10.0,East,16.1,27.6,N/A,,Scattered Clouds,80,2013-04-03 00:15:00
7:35 PM,46.4,35.6,66,30.10,10.0,NE,16.1,19.6,N/A,,Overcast,40,2013-04-03 00:35:00
7:55 PM,46.4,37.4,71,30.13,10.0,NNE,15.0,21.9,N/A,,Overcast,30,2013-04-03 00:55:00
8:15 PM,44.6,39.2,81,30.12,10.0,ENE,15.0,23.0,N/A,,Overcast,60,2013-04-03 01:15:00
8:35 PM,44.6,41.0,87,30.11,3.0,ENE,15.0,19.6,0.07,,Overcast,70,2013-04-03 01:35:00
8:55 PM,42.8,39.2,87,30.12,3.0,East,9.2,17.3,0.12,,Overcast,100,2013-04-03 01:55:00
9:15 PM,42.8,39.2,87,30.11,4.0,East,13.8,21.9,0.02,,Overcast,90,2013-04-03 02:15:00
9:55 PM,42.8,39.2,87,30.10,7.0,East,16.1,26.5,0.06,,Overcast,80,2013-04-03 02:55:00
10:15 PM,42.8,39.2,87,30.09,4.0,East,19.6,25.3,0.03,,Overcast,100,2013-04-03 03:15:00
10:55 PM,42.8,41.0,93,30.10,10.0,East,10.4,20.7,0.05,,Overcast,80,2013-04-03 03:55:00
11:15 PM,42.8,41.0,93,30.12,10.0,NE,9.2,-,N/A,,Overcast,50,2013-04-03 04:15:00
11:35 PM,42.8,41.0,93,30.12,10.0,NE,13.8,-,N/A,,Overcast,50,2013-04-03 04:35:00
11:55 PM,42.8,41.0,93,30.11,10.0,ENE,11.5,-,N/A,,Overcast,60,2013-04-03 04:55:00